Hiwassee Observed Data For Previous 48 Hours

Caption
Day and Hour Reservoir Elevation (behind dam)* Tailwater Elevation (below dam)* Average Hourly Discharge*
3/18/2019 2 AM EDT 1,499.17 1,277.42 9,256
3/18/2019 3 AM EDT 1,499.13 1,277.42 9,263
3/18/2019 4 AM EDT 1,499.05 1,277.42 9,249
3/18/2019 5 AM EDT 1,499.01 1,277.42 9,261
3/18/2019 6 AM EDT 1,498.93 1,277.41 9,235
3/18/2019 7 AM EDT 1,498.86 1,277.43 9,262
3/18/2019 8 AM EDT 1,498.81 1,277.42 9,247
3/18/2019 9 AM EDT 1,498.73 1,277.42 9,249
3/18/2019 10 AM EDT 1,498.66 1,277.43 9,237
3/18/2019 11 AM EDT 1,498.59 1,277.39 9,249
3/18/2019 12 PM EDT 1,498.54 1,277.40 9,239
3/18/2019 1 PM EDT 1,498.46 1,277.40 9,251
3/18/2019 2 PM EDT 1,498.42 1,277.40 9,239
3/18/2019 3 PM EDT 1,498.32 1,277.38 9,250
3/18/2019 4 PM EDT 1,498.25 1,277.34 9,240
3/18/2019 5 PM EDT 1,498.20 1,277.37 9,248
3/18/2019 6 PM EDT 1,498.15 1,277.36 9,254
3/18/2019 7 PM EDT 1,498.05 1,277.34 9,231
3/18/2019 8 PM EDT 1,498.00 1,277.33 9,253
3/18/2019 9 PM EDT 1,497.92 1,277.32 9,229
3/18/2019 10 PM EDT 1,497.85 1,277.33 9,233
3/18/2019 11 PM EDT 1,497.81 1,277.31 9,219
3/19/2019 12 AM EDT 1,497.73 1,277.30 9,230
3/19/2019 1 AM EDT 1,497.66 1,277.31 9,222
3/19/2019 2 AM EDT 1,497.59 1,277.31 9,234
3/19/2019 3 AM EDT 1,497.54 1,277.31 9,214
3/19/2019 4 AM EDT 1,497.47 1,277.31 9,233
3/19/2019 5 AM EDT 1,497.39 1,277.31 9,208
3/19/2019 6 AM EDT 1,497.32 1,277.32 9,212
3/19/2019 7 AM EDT 1,497.24 1,277.31 9,199
3/19/2019 8 AM EDT 1,497.20 1,277.31 9,219
3/19/2019 9 AM EDT 1,497.12 1,277.30 9,195
3/19/2019 10 AM EDT 1,497.05 1,277.27 9,197
3/19/2019 11 AM EDT 1,496.98 1,277.27 9,194
3/19/2019 12 PM EDT 1,496.90 1,277.25 9,198
3/19/2019 1 PM EDT 1,496.83 1,277.26 9,228
3/19/2019 2 PM EDT 1,496.76 1,277.25 9,212
3/19/2019 3 PM EDT 1,496.68 1,277.25 9,224
3/19/2019 4 PM EDT 1,496.62 1,277.26 9,216
3/19/2019 5 PM EDT 1,496.54 1,277.25 9,228
3/19/2019 6 PM EDT 1,496.46 1,277.25 9,217
3/19/2019 7 PM EDT 1,496.38 1,277.24 9,227
3/19/2019 8 PM EDT 1,496.31 1,277.23 9,216
3/19/2019 9 PM EDT 1,496.24 1,277.21 9,232
3/19/2019 10 PM EDT 1,496.17 1,277.21 9,206
3/19/2019 11 PM EDT 1,496.10 1,277.21 9,216
3/20/2019 12 AM EDT 1,496.03 1,277.21 9,201
3/20/2019 1 AM EDT 1,495.97 1,277.21 9,219
3/20/2019 2 AM EDT 1,495.88 1,277.18 9,206
3/20/2019 3 AM EDT 1,495.80 1,277.18 9,213
3/20/2019 4 AM EDT 1,495.73 1,277.18 9,194
3/20/2019 5 AM EDT 1,495.66 1,277.18 9,209
3/20/2019 6 AM EDT 1,495.58 1,277.17 9,193
3/20/2019 7 AM EDT 1,495.51 1,277.17 9,167
3/20/2019 8 AM EDT 1,495.44 1,277.17 9,181
3/20/2019 9 AM EDT 1,495.37 1,277.15 9,157

Elevations are in feet above sea level. Discharges are in cubic feet per second and are reported at the end of the hour.